Back to catalog

METEOR M2-2

AliveWeatherSSO
NORAD 44387·PAYLOAD·🇷🇺 Russia

Launched Jul 5, 2019 from Vostochny Cosmodrome

Loading…

Next Passes (next 24 hours)

TLE

FreshSource: Space-Track

Epoch: Sep 14, 2026, 14:19 UTC

1 44387U 19038A   26257.59714525  .00000051  00000-0  41740-4 0  9993
2 44387  98.9239 246.2416 0002195 100.7998 259.3427 14.24385622374029

Track METEOR M2-2 in real time with AllMySat

Download on the App Store